GW7352 Weather Reports


time (UTC)temp
C
wind
direction
speed
KPH
gust
KPH
rain 1hr
cm
rain 24hr
cm
rain mn
cm
humidity
%
barometer
mb
20260504160144 12 239 0.0 12.9 0.00 0.00 0.00 56 936.7
20260504151123 10 293 0.0 0.0 0.00 0.00 0.00 67 936.9
20260504150123 10 225 0.0 0.0 0.00 0.00 0.00 67 936.9
20260504141123 7 248 0.0 0.0 0.00 0.00 0.00 73 936.7
20260504140123 7 248 0.0 0.0 0.00 0.00 0.00 72 936.7
20260504130123 7 90 0.0 0.0 0.00 0.00 0.00 72 936.2
20260504120123 7 180 0.0 0.0 0.00 0.00 0.00 67 935.7
20260504110123 8 113 0.0 0.0 0.00 0.00 0.00 65 935.6
20260504100123 9 135 0.0 0.0 0.00 0.00 0.00 62 935.5
20260504081123 10 180 0.0 0.0 0.00 0.00 0.00 57 935.4
20260504080123 11 180 0.0 0.0 0.00 0.00 0.00 56 935.5
20260504070144 12 90 0.0 0.0 0.00 0.00 0.00 53 935.2
20260504060123 13 180 0.0 0.0 0.00 0.00 0.00 49 935.1
20260504050122 15 180 0.0 0.0 0.00 0.00 0.00 46 934.9
20260504045123 15 248 0.0 0.0 0.00 0.00 0.00 46 934.9
20260504044122 15 225 0.0 0.0 0.00 0.00 0.00 46 934.8
20260504043122 15 135 0.0 0.0 0.00 0.00 0.00 46 934.7
20260504042122 15 225 0.0 0.0 0.00 0.00 0.00 46 934.9
20260504041123 16 225 0.0 0.0 0.00 0.00 0.00 44 934.8
20260504040123 16 203 0.0 0.0 0.00 0.00 0.00 45 934.9
20260504035123 16 248 0.0 0.0 0.00 0.00 0.00 43 934.9
20260504034123 17 203 0.0 0.0 0.00 0.00 0.00 42 934.7
20260504033122 17 113 0.0 0.0 0.00 0.00 0.00 41 934.6
20260504032123 18 113 0.0 0.0 0.00 0.00 0.00 39 934.5
20260504031122 18 90 0.0 0.0 0.00 0.00 0.00 39 934.4
20260504030122 19 225 0.0 0.0 0.00 0.00 0.00 39 934.4
20260504025144 20 239 1.6 4.8 0.00 0.00 0.00 37 934.2
20260504024122 21 238 1.6 9.7 0.00 0.00 0.00 34 934.0
20260504023122 21 233 0.0 9.7 0.00 0.00 0.00 32 933.9
20260504022123 22 68 0.0 3.2 0.00 0.00 0.00 31 933.8
20260504021123 22 37 0.0 6.4 0.00 0.00 0.00 29 933.8
20260504020122 23 284 0.0 9.7 0.00 0.00 0.00 28 933.8
20260504015123 24 203 0.0 0.0 0.00 0.00 0.00 25 933.8
20260504014122 25 53 1.6 8.0 0.00 0.00 0.00 24 933.9
20260504013123 27 51 1.6 6.4 0.00 0.00 0.00 22 933.8
20260504012122 27 36 1.6 4.8 0.00 0.00 0.00 22 933.9
20260504011122 27 40 1.6 6.4 0.00 0.00 0.00 21 933.9
20260504010123 28 3 1.6 9.7 0.00 0.00 0.00 21 934.0
20260504005144 28 3 1.6 6.4 0.00 0.00 0.00 21 934.0
20260504004123 28 20 3.2 12.9 0.00 0.00 0.00 20 934.0
20260504003122 28 14 1.6 6.4 0.00 0.00 0.00 20 934.1
20260504002144 29 328 0.0 6.4 0.00 0.00 0.00 21 934.0
20260504001144 29 21 1.6 9.7 0.00 0.00 0.00 19 934.1
20260504000123 29 56 0.0 4.8 0.00 0.00 0.00 20 934.2
20260503235122 30 360 0.0 0.0 0.00 0.00 0.00 20 934.2
20260503234123 29 23 0.0 0.0 0.00 0.00 0.00 20 934.2
20260503233122 30 45 0.0 4.8 0.00 0.00 0.00 21 934.4
20260503232122 29 34 1.6 8.0 0.00 0.00 0.00 21 934.5
20260503231144 29 56 1.6 9.7 0.00 0.00 0.00 22 934.7
20260503230124 28 22 1.6 8.0 0.00 0.00 0.00 24 934.7
20260503225123 28 70 0.0 4.8 0.00 0.00 0.00 23 934.8
20260503224143 28 45 0.0 4.8 0.00 0.00 0.00 23 935.0
20260503223122 28 29 1.6 9.7 0.00 0.00 0.00 23 935.2
20260503222123 27 43 0.0 9.7 0.00 0.00 0.00 24 935.2
20260503221122 27 11 1.6 11.3 0.00 0.00 0.00 28 935.4
20260503220123 27 298 0.0 4.8 0.00 0.00 0.00 25 935.4
20260503215122 27 49 1.6 8.0 0.00 0.00 0.00 25 935.7
20260503214122 27 37 1.6 11.3 0.00 0.00 0.00 23 935.9
20260503213122 27 360 0.0 0.0 0.00 0.00 0.00 25 936.0
20260503212122 27 291 0.0 4.8 0.00 0.00 0.00 28 936.2
20260503211123 26 13 1.6 8.0 0.00 0.00 0.00 26 936.4
20260503210144 26 285 3.2 9.7 0.00 0.00 0.00 28 936.5
20260503205123 26 227 1.6 12.9 0.00 0.00 0.00 28 936.5
20260503204123 26 39 1.6 8.0 0.00 0.00 0.00 27 936.7
20260503203123 25 223 0.0 11.3 0.00 0.00 0.00 30 936.9
20260503202123 25 230 0.0 6.4 0.00 0.00 0.00 28 937.0
20260503201122 25 269 1.6 6.4 0.00 0.00 0.00 26 937.2
20260503200144 25 233 1.6 11.3 0.00 0.00 0.00 27 937.2
20260503195122 23 256 1.6 12.9 0.00 0.00 0.00 29 937.4
20260503194123 23 236 1.6 12.9 0.00 0.00 0.00 30 937.6
20260503193122 22 219 1.6 11.3 0.00 0.00 0.00 32 937.8
20260503192122 22 235 3.2 12.9 0.00 0.00 0.00 31 938.1
20260503191123 21 237 3.2 11.3 0.00 0.00 0.00 32 938.2
20260503190123 21 227 4.8 12.9 0.00 0.00 0.00 34 938.2
20260503185122 20 241 4.8 11.3 0.00 0.00 0.00 35 938.2
20260503184122 20 244 4.8 14.5 0.00 0.00 0.00 36 938.4
20260503183143 20 239 3.2 11.3 0.00 0.00 0.00 35 938.6
20260503182123 19 233 3.2 11.3 0.00 0.00 0.00 36 938.9
20260503181123 18 250 1.6 12.9 0.00 0.00 0.00 36 939.1
20260503180123 18 222 3.2 9.7 0.00 0.00 0.00 39 939.1
20260503175125 17 259 1.6 11.3 0.00 0.00 0.00 39 939.4
20260503174130 17 234 1.6 8.0 0.00 0.00 0.00 42 939.6
20260503173123 17 262 1.6 9.7 0.00 0.00 0.00 43 939.7
20260503172143 16 253 1.6 8.0 0.00 0.00 0.00 45 940.0
20260503171122 15 234 0.0 6.4 0.00 0.00 0.00 48 940.0
20260503170122 15 203 0.0 0.0 0.00 0.00 0.00 48 940.2